UITMSAT-1 (43589 NORAD) Tracking and Keplerian Element Data

This shows tracking and keplerian element data for the satellite.

Feedback or suggestion? Click here.




ElementValue
Catalog43589
NameUITMSAT-1
Epoch Orbit1579
Epoch Day323.46714378
Epoch Year2018
RAAN323.6253
Inclination51.639
Eccentricity0.0006855
Argument of Perigee79.0497
Mean Anonmoly281.1265
Mean Motion15.56632785
Decay Rate0.00011228
L11 43589U 98067PD 18323.46714378 .00011228 00000-0 16116-3 0 9998
L22 43589 51.6390 323.6253 0006855 79.0497 281.1265 15.56632785 15794

Live tracking and technical data element details for UITMSAT-1 (NORAD 43589). UITMSAT-1 can be tracked NOW for your location showing map with azimuth and elevation plus other details from your city location.

Track the satellite on the map from your city or location and see movement details for azimuth, elevation, latitude, longitude, range, height, and movement on the map or in text.







IsCatalogInMostPopularTable: catalog: 43589, numindb: 50
Update: records affected: 1



GetName: 43589 UITMSAT-1

Hit Count: updated at: Tue, 20 Nov 2018 11:06:57 GMT